カタログに戻る

STARLINK-5969

運用中通信VLEO
NORAD 55993·PAYLOAD·🇺🇸 United States

打ち上げ Mar 24, 2023 から Cape Canaveral Space Force Station

Loading…

次のパス (今後24時間)

TLE

最新Source: CelesTrak SupGP

元期: Sep 15, 2026, 03:08 UTC

1 55993C 23042H   26258.13104167 -.00055194  00000+0 -19988-2 0  2588
2 55993  43.0040  69.6547 0001883 271.0772  71.0162 15.27610388    16

AllMySatでSTARLINK-5969をリアルタイム追跡

Download on the App Store